Location: Launay
(47.2429°N, 1.5727°E)
Time: 12:51:51
(UTC+00:00)

CZ-2C R/B - Pass Details

Date: 19 May 2025
Orbit: 631 x 693 km, 98.1° (Epoch: 11 June)

Event Time Altitude Azimuth Distance (km) Brightness Sun altitude
Rises 23:14:14 0° 9° (N) 2,938 8.3 -22.3°
Reaches altitude 10° 23:16:29 10° 4° (N) 2,024 7.3 -22.3°
Maximum altitude 23:20:43 50° 290° (WNW) 808 4.2 -22.4°
Enters shadow 23:21:52 39° 244° (WSW) 949 4.3 -22.5°
